User: anonymous   Login
Location: Kaarina
(60.4167°N, 22.4167°E)
Time: 21:38:39
(UTC+03:00)
Language:

Cosmos 1707 - Orbit

View from above orbital plane
View from above orbital plane
View from above satellite
View from above satellite

Ground track
Ground track

The orbit data is extracted from the following two-line orbital elements,

1 16326U 85113A   19292.54556189 +.00000034 +00000-0 +14099-6 0  9998
2 16326 082.5088 088.4698 0009371 223.3638 136.6857 15.14090850846312
Epoch (UTC): 19 October 2019 13:05:36
Eccentricity: 0.0009371
inclination: 82.5088°
perigee height: 517 km
apogee height: 530 km
right ascension of ascending node: 88.4698°
argument of perigee: 223.3638°
revolutions per day: 15.14090850
mean anomaly at epoch: 136.6857°
orbit number at epoch: 84631

The dashed part of the orbit path shows where the satellite is in the earth's shadow,  

DLR